Date String (YYYY-MM-DD hh:mm:ss) UTC,Instrument flags,Ambient pressure (hPa),Sample flow (lpm),Bypass flow (lpm),Sample temperature (°C),Ambient temperature (°C),ASC tube jacket temperature (°C),LED temperature (°C),Box temperature (°C),Sample RH (%),Span deviation,Mass concentration (μg/m³),Mass concentration (μg/m³),Mass concentration (μg/m³)
DateTimeUTC,F1_M11,P_M11,Q1_M11,Q2_M11,T1_M11,T2_M11,T3_M11,T4_M11,T5_M11,U1_M11,ZSPAN_M11,X0_M11,X2_M11,X1_M11
2022-11-01 20:00:00,,0821.0,5.00,0.00,30.3,29.0,00.0,39.1,32.1,09.8,0000.0,0017.49,0004.56,0003.71
2022-11-01 20:01:00,,0821.0,5.00,0.00,30.3,29.0,00.0,39.1,32.1,09.7,0000.0,0017.76,0004.57,0003.71
2022-11-01 20:02:00,,0821.0,5.00,0.00,30.3,29.1,00.0,39.1,32.2,09.6,0000.0,0017.40,0004.60,0003.69
2022-11-01 20:03:00,,0821.0,4.99,0.00,30.4,29.2,00.0,39.1,32.2,09.5,0000.0,0017.30,0004.54,0003.64
2022-11-01 20:04:00,,0821.0,5.02,0.00,30.4,29.2,00.0,39.1,32.2,09.4,0000.0,0016.69,0004.47,0003.59
2022-11-01 20:05:00,,0821.0,4.98,0.00,30.4,29.3,00.0,39.2,32.3,09.4,0000.0,0016.58,0004.38,0003.54
2022-11-01 20:06:00,,0821.0,5.01,0.00,30.5,29.3,00.0,39.2,32.3,09.3,0000.0,0016.66,0004.35,0003.47
2022-11-01 20:07:00,,0821.0,4.99,0.00,30.5,28.8,00.0,39.2,32.3,09.4,0000.0,0016.85,0004.32,0003.42
2022-11-01 20:08:00,,0820.9,5.00,0.00,30.4,27.4,00.0,39.1,32.2,09.4,0000.0,0017.50,0004.31,0003.38
2022-11-01 20:09:00,,0820.9,5.00,0.00,30.4,27.1,00.0,39.1,32.1,09.4,0000.0,0017.42,0004.29,0003.34
2022-11-01 20:10:00,,0820.9,5.00,0.00,30.3,27.3,00.0,39.1,32.0,09.4,0000.0,0016.75,0004.28,0003.31
2022-11-01 20:11:00,,0820.9,4.99,0.00,30.3,27.6,00.0,39.1,31.9,09.4,0000.0,0016.71,0004.26,0003.27
2022-11-01 20:12:00,,0820.9,5.00,0.00,30.2,27.9,00.0,39.0,31.9,09.4,0000.0,0016.45,0004.22,0003.23
2022-11-01 20:13:00,,0820.9,5.01,0.00,30.2,28.1,00.0,39.0,31.9,09.4,0000.0,0015.87,0004.15,0003.22
2022-11-01 20:14:00,,0821.0,4.98,0.00,30.2,28.3,00.0,39.0,32.0,09.5,0000.0,0015.50,0004.14,0003.22
2022-11-01 20:15:00,,0820.9,5.02,0.00,30.2,28.5,00.0,39.0,32.0,09.6,0000.0,0016.30,0004.17,0003.21
2022-11-01 20:16:00,,0820.9,4.99,0.00,30.2,28.7,00.0,39.0,32.0,09.6,0000.0,0016.71,0004.17,0003.21
2022-11-01 20:17:00,,0820.9,5.02,0.00,30.3,28.8,00.0,39.0,32.0,09.4,0000.0,0016.71,0004.17,0003.20
2022-11-01 20:18:00,,0820.9,4.99,0.00,30.3,28.9,00.0,39.1,32.1,09.4,0000.0,0017.52,0004.13,0003.19
2022-11-01 20:19:00,,0820.9,5.02,0.00,30.3,29.0,00.0,39.1,32.1,09.4,0000.0,0016.80,0004.07,0003.18
2022-11-01 20:20:00,,0820.9,4.98,0.00,30.3,29.0,00.0,39.1,32.1,09.4,0000.0,0016.30,0004.04,0003.17
2022-11-01 20:21:00,,0820.9,4.99,0.00,30.3,29.1,00.0,39.1,32.2,09.5,0000.0,0015.65,0004.01,0003.15
2022-11-01 20:22:00,,0820.9,5.00,0.00,30.4,29.0,00.0,39.1,32.2,09.4,0000.0,0014.87,0003.98,0003.15
2022-11-01 20:23:00,,0820.9,5.01,0.00,30.4,27.8,00.0,39.1,32.1,09.4,0000.0,0014.54,0003.96,0003.15
2022-11-01 20:24:00,,0820.9,5.00,0.00,30.3,26.5,00.0,39.0,32.0,09.4,0000.0,0014.36,0003.96,0003.14
2022-11-01 20:25:00,,0820.9,5.00,0.00,30.2,26.5,00.0,38.9,31.9,09.5,0000.0,0013.72,0003.96,0003.13
2022-11-01 20:26:00,,0820.9,5.01,0.00,30.2,26.8,00.0,38.9,31.8,09.5,0000.0,0012.49,0003.93,0003.11
2022-11-01 20:27:00,,0820.9,4.99,0.00,30.1,27.1,00.0,38.9,31.7,09.6,0000.0,0011.16,0003.92,0003.08
2022-11-01 20:28:00,,0820.9,5.00,0.00,30.1,27.5,00.0,38.9,31.8,09.6,0000.0,0010.22,0003.89,0003.07
2022-11-01 20:29:00,,0820.9,5.00,0.00,30.1,27.9,00.0,38.9,31.8,09.7,0000.0,0009.11,0003.88,0003.05
2022-11-01 20:30:00,,0820.9,5.00,0.00,30.1,28.2,00.0,38.9,31.9,09.6,0000.0,0008.42,0003.89,0003.03
2022-11-01 20:31:00,,0820.9,4.99,0.00,30.1,28.4,00.0,38.9,32.0,09.6,0000.0,0008.21,0003.88,0003.01
2022-11-01 20:32:00,,0820.9,5.02,0.00,30.1,28.7,00.0,38.9,32.0,09.6,0000.0,0008.21,0003.88,0003.01
2022-11-01 20:33:00,,0820.9,5.00,0.00,30.2,28.8,00.0,38.9,32.0,09.5,0000.0,0009.02,0003.88,0003.03
2022-11-01 20:34:00,,0820.9,4.99,0.00,30.2,29.0,00.0,38.9,32.1,09.5,0000.0,0009.32,0003.90,0003.03
2022-11-01 20:35:00,,0820.8,4.99,0.00,30.2,29.1,00.0,38.9,32.1,09.4,0000.0,0009.97,0003.89,0003.03
2022-11-01 20:36:00,,0820.8,4.99,0.00,30.2,29.1,00.0,38.9,32.1,09.5,0000.0,0010.26,0003.89,0003.03
2022-11-01 20:37:00,,0820.8,5.00,0.00,30.3,29.2,00.0,39.0,32.2,09.3,0000.0,0010.59,0003.89,0003.02
2022-11-01 20:38:00,,0820.8,5.00,0.00,30.3,29.2,00.0,39.0,32.2,09.3,0000.0,0010.96,0003.87,0003.01
2022-11-01 20:39:00,,0820.8,5.00,0.00,30.3,28.7,00.0,39.0,32.2,09.3,0000.0,0011.58,0003.87,0002.99
2022-11-01 20:40:00,,0820.8,5.00,0.00,30.3,27.0,00.0,39.0,31.9,09.4,0000.0,0012.52,0003.87,0002.97
2022-11-01 20:41:00,,0820.7,5.00,0.00,30.2,26.3,00.0,38.9,31.8,09.4,0000.0,0013.12,0003.85,0002.96
2022-11-01 20:42:00,,0820.7,5.01,0.00,30.1,26.5,00.0,38.8,31.7,09.4,0000.0,0013.96,0003.82,0002.94
2022-11-01 20:43:00,,0820.7,4.99,0.00,30.0,26.8,00.0,38.8,31.6,09.4,0000.0,0013.89,0003.80,0002.91
2022-11-01 20:44:00,,0820.7,5.01,0.00,29.9,27.2,00.0,38.7,31.6,09.5,0000.0,0013.00,0003.77,0002.86
2022-11-01 20:45:00,,0820.7,4.99,0.00,29.9,27.5,00.0,38.7,31.6,09.5,0000.0,0012.82,0003.71,0002.81
2022-11-01 20:46:00,,0820.7,5.01,0.00,29.9,27.8,00.0,38.7,31.7,09.5,0000.0,0012.42,0003.71,0002.77
2022-11-01 20:47:00,,0820.6,4.99,0.00,29.9,28.0,00.0,38.7,31.7,09.6,0000.0,0012.50,0003.68,0002.74
2022-11-01 20:48:00,,0820.6,4.99,0.00,29.9,28.2,00.0,38.7,31.7,09.6,0000.0,0013.09,0003.69,0002.77
2022-11-01 20:49:00,,0820.6,5.01,0.00,29.9,28.4,00.0,38.7,31.8,09.7,0000.0,0013.21,0003.73,0002.80
2022-11-01 20:50:00,,0820.6,5.01,0.00,29.9,28.5,00.0,38.7,31.8,09.6,0000.0,0013.09,0003.73,0002.81
2022-11-01 20:51:00,,0820.6,5.00,0.00,30.0,28.7,00.0,38.7,31.8,09.6,0000.0,0012.50,0003.73,0002.83
2022-11-01 20:52:00,,0820.6,5.00,0.00,30.0,28.8,00.0,38.7,31.9,09.6,0000.0,0013.14,0003.73,0002.84
2022-11-01 20:53:00,,0820.6,5.00,0.00,30.0,28.8,00.0,38.7,31.9,09.6,0000.0,0013.19,0003.79,0002.86
2022-11-01 20:54:00,,0820.6,4.99,0.00,30.0,28.9,00.0,38.8,31.9,09.6,0000.0,0013.50,0003.80,0002.89
2022-11-01 20:55:00,,0820.6,4.99,0.00,30.0,28.9,00.0,38.8,32.0,09.5,0000.0,0013.64,0003.82,0002.93
2022-11-01 20:56:00,,0820.6,4.99,0.00,30.1,29.0,00.0,38.8,32.0,09.5,0000.0,0013.98,0003.83,0002.96
2022-11-01 20:57:00,,0820.6,5.00,0.00,30.1,29.1,00.0,38.8,32.0,09.7,0000.0,0014.34,0003.85,0002.98
2022-11-01 20:58:00,,0820.6,5.01,0.00,30.1,29.1,00.0,38.8,32.0,09.5,0000.0,0014.50,0003.85,0003.00
2022-11-01 20:59:00,,0820.6,5.01,0.00,30.2,29.2,00.0,38.9,32.1,09.5,0000.0,0014.12,0003.85,0002.98
